Eelde, Netherlands

5:09 PM CET on February 25, 2018 (GMT +0100)
Eelde

Weather History for EHGG - May, 2013

Change the Weather History Date:

Tuesday, May 7, 2013

  Actual Average Record
Temperature  
Mean Temperature 61 °F -  
Max Temperature 76 °F 63 °F 82 °F (2011)
Min Temperature 46 °F 44 °F 31 °F (2012)
Degree Days  
Heating Degree Days 4    
Growing Degree Days 11 (Base 50)    
Moisture  
Dew Point 50 °F    
Average Humidity 70    
Maximum Humidity 100    
Minimum Humidity 24    
Precipitation  
Precipitation 0.01 in 0.08 in - ()
Sea Level Pressure  
Sea Level Pressure 30.02 in    
Wind  
Wind Speed 6 mph ()    
Max Wind Speed 18 mph    
Max Gust Speed 32 mph    
Visibility 6.6 miles    
Events Rain    
Averages and records for this station are not official NWS values.
T = Trace of Precipitation, MM = Missing Value Source: Averaged Metar Reports

Daily Weather History Graph

Daily Weather History Graph

Search for Another Location

Airport or City:

Trip Planner

Search our weather history database for the weather conditions in past years. The results will help you decide how hot, cold, wet, or windy it might be!

Date:

Astronomy

May. 07, 2013 Rise Set
Actual Time 5:48 AM CEST 9:12 PM CEST
Civil Twilight 5:06 AM CEST 9:54 PM CEST
Nautical Twilight 4:10 AM CEST 10:51 PM CEST
Astronomical Twilight 2:49 AM CEST 12:15 AM CEST
Moon 4:35 AM CEST (5/7) 6:40 PM CEST (5/7)
Length of Visible Light 16h 48m
Length of Day
15h 24m
Waning Crescent, 7% of the Moon is Illuminated
May 7
Waning Crescent
May 10
New
May 18
First Quarter
May 25
Full
May 31
Last Quarter

Hourly Weather History & Observations

Time (CEST) Temp. Dew Point Humidity Pressure Visibility Wind Dir Wind Speed Gust Speed Precip Events Conditions
12:25 AM 53.6 °F 48.2 °F 82% 30.06 in 6.2 mi NE 6.9 mph - N/A   Unknown
12:55 AM 53.6 °F 48.2 °F 82% 30.06 in 6.2 mi NE 5.8 mph - N/A   Unknown
1:25 AM 53.6 °F 46.4 °F 77% 30.06 in 6.2 mi North 4.6 mph - N/A   Unknown
1:55 AM 51.8 °F 46.4 °F 82% 30.06 in 6.2 mi NNE 2.3 mph - N/A   Unknown
2:00 AM 51 °F 47 °F 80% 30.08 in 7 mi NNE 2.2 mph - -   Partly Cloudy
2:25 AM 51.8 °F 48.2 °F 88% 30.06 in 6.2 mi NE 3.5 mph - N/A   Unknown
2:55 AM 51.8 °F 46.4 °F 82% 30.04 in 5.6 mi NE 3.5 mph - N/A   Unknown
3:25 AM 50.0 °F 48.2 °F 94% 30.04 in 4.3 mi NE 3.5 mph - N/A   Unknown
3:55 AM 50.0 °F 46.4 °F 87% 30.04 in 3.7 mi NE 3.5 mph - N/A   Unknown
4:25 AM 48.2 °F 46.4 °F 93% 30.04 in 3.1 mi ENE 3.5 mph - N/A   Mist
4:55 AM 50.0 °F 48.2 °F 94% 30.04 in - ENE 2.3 mph - N/A   Mist
5:00 AM 48 °F 47 °F 96% 30.06 in 2 mi ENE 2.2 mph - -   Mist
5:25 AM 48.2 °F 46.4 °F 93% 30.04 in - ENE 1.2 mph - N/A   Mist
5:55 AM 48.2 °F 46.4 °F 93% 30.06 in 1.2 mi ENE 2.3 mph - N/A   Mist
6:25 AM 48.2 °F 46.4 °F 93% 30.06 in - ENE 1.2 mph - N/A   Mist
6:55 AM 48.2 °F 48.2 °F 100% 30.06 in - ENE 2.3 mph - N/A   Mist
7:25 AM 53.6 °F 50.0 °F 88% 30.06 in 2.8 mi NE 3.5 mph - N/A   Mist
7:55 AM 57.2 °F 50.0 °F 77% 30.06 in 5.0 mi ENE 4.6 mph - N/A   Unknown
8:00 AM 57 °F 51 °F 72% 30.07 in 6 mi ENE 6.7 mph - -   Mist
8:25 AM 59.0 °F 50.0 °F 72% 30.06 in 6.2 mi East 5.8 mph - N/A   Unknown
8:55 AM 60.8 °F 51.8 °F 72% 30.06 in 6.2 mi East 4.6 mph - N/A   Unknown
9:25 AM 64.4 °F 51.8 °F 64% 30.06 in 6.2 mi ENE 5.8 mph - N/A   Unknown
9:55 AM 66.2 °F 51.8 °F 60% 30.04 in 6.2 mi NE 4.6 mph - N/A   Unknown
10:25 AM 68.0 °F 51.8 °F 56% 30.04 in 6.2 mi NE 5.8 mph - N/A   Unknown
10:55 AM 69.8 °F 51.8 °F 53% 30.04 in 6.2 mi East 10.4 mph - N/A   Unknown
11:00 AM 70 °F 51 °F 41% 30.06 in 14 mi East 8.9 mph - -  
11:25 AM 71.6 °F 50.0 °F 46% 30.04 in 6.2 mi East 10.4 mph - N/A   Unknown
11:55 AM 71.6 °F 46.4 °F 41% 30.04 in 6.2 mi East 12.7 mph - N/A   Unknown
12:25 PM 73.4 °F 50.0 °F 44% 30.04 in 6.2 mi ENE 12.7 mph - N/A   Unknown
12:55 PM 73.4 °F 48.2 °F 41% 30.04 in 6.2 mi ENE 16.1 mph - N/A   Unknown
1:25 PM 75.2 °F 50.0 °F 41% 30.04 in 6.2 mi East 13.8 mph - N/A   Unknown
1:55 PM 73.4 °F 44.6 °F 36% 30.04 in 6.2 mi ENE 18.4 mph - N/A   Unknown
2:00 PM 74 °F 44 °F 24% 30.04 in 19 mi East 15.7 mph - -   Partly Cloudy
2:25 PM 73.4 °F 44.6 °F 36% 30.01 in 6.2 mi East 17.3 mph - N/A   Unknown
2:55 PM 73.4 °F 46.4 °F 38% 30.01 in 6.2 mi ENE 16.1 mph - N/A   Unknown
3:25 PM 73.4 °F 42.8 °F 33% 30.01 in 6.2 mi East 18.4 mph 32.2 mph N/A   Unknown
3:55 PM 71.6 °F 46.4 °F 41% 30.01 in 6.2 mi East 13.8 mph - N/A   Partly Cloudy
4:25 PM 69.8 °F 46.4 °F 43% 30.01 in 6.2 mi East 11.5 mph - N/A   Unknown
4:55 PM 62.6 °F 53.6 °F 72% 30.01 in 6.2 mi East 10.4 mph - N/A Rain Light Rain
5:00 PM 62 °F 54 °F 69% 30.03 in 10 mi ESE 8.9 mph - - Rain Light Rain Showers
5:25 PM 60.8 °F 55.4 °F 82% 30.01 in 6.2 mi East 5.8 mph - N/A Rain Drizzle
5:55 PM 60.8 °F 55.4 °F 82% 30.01 in 6.2 mi East 3.5 mph - N/A   Light Drizzle
6:25 PM 62.6 °F 57.2 °F 82% 29.98 in 6.2 mi NNW 5.8 mph - N/A Rain Light Rain
6:55 PM 62.6 °F 57.2 °F 82% 29.98 in 6.2 mi North 6.9 mph - N/A Rain Light Rain
7:25 PM 62.6 °F 55.4 °F 77% 29.98 in 6.2 mi North 8.1 mph - N/A   Partly Cloudy
7:55 PM 62.6 °F 53.6 °F 72% 29.98 in 6.2 mi NNE 8.1 mph - N/A   Unknown
8:00 PM 63 °F 54 °F 64% 29.98 in 15 mi NNE 8.9 mph - - Rain Drizzle
8:25 PM 62.6 °F 53.6 °F 72% 29.95 in 6.2 mi NE 8.1 mph - N/A   Unknown
8:55 PM 62.6 °F 53.6 °F 72% 29.95 in 6.2 mi ENE 12.7 mph - N/A   Unknown
9:25 PM 60.8 °F 51.8 °F 72% 29.95 in 6.2 mi ENE 13.8 mph - N/A   Unknown
9:55 PM 60.8 °F 53.6 °F 77% 29.95 in 6.2 mi ENE 11.5 mph - N/A   Unknown
10:25 PM 59.0 °F 53.6 °F 82% 29.95 in 6.2 mi ENE 10.4 mph - N/A   Unknown
10:55 PM 59.0 °F 53.6 °F 82% 29.95 in 6.2 mi ENE 10.4 mph - N/A   Unknown
11:00 PM 58 °F 53 °F 77% 29.96 in 14 mi ENE 8.9 mph - -   Overcast
11:25 PM 59.0 °F 51.8 °F 77% 29.95 in 6.2 mi ENE 9.2 mph - N/A   Scattered Clouds
11:55 PM 59.0 °F 51.8 °F 77% 29.95 in 6.2 mi ENE 11.5 mph - N/A   Overcast